Starlink 5287

operational
NORAD ID: 55293 Int'l Des: 2023-010 Owner: SPXS Country: US Constellation: starlink
LEOCIRCULAR

About Starlink 5287

Description loading...

Live Position

Loading 3D Globe...

Upcoming Passes

Altitude History

Altitude vs Time

uPlot chart will show altitude changes over time

Two-Line Element Set

1 55293U 23010AA 25304.53655608 .00001088 00000-0 98945-4 0 9998
2 55293 70.0001 350.0826 0002999 262.7339 97.3480 14.98329770153920
Epoch: Oct 31, 2025 • Age: 8 hours

Current Status

Altitude 574.5 km
Velocity 7.57 km/s
Sub-Earth Point 3.94°N, 3.35°W
Launch Date Jan 19, 2023
Age 2.7 years
Type internet

Technical Details

Classification Payload
Mass 305.00 kg
Dry Mass 290.00 kg
Total Mass 305.00 kg
Length 0.20 m
Diameter 2.80 m
Span 9.00 m
Shape Box + pan
Manufacturer SPXS
Bus Type Starlink
Phase Status In Orbit
Owner/State SPXS/US

Large Constellations

Loading constellations...